Regional Weather Roundup
Issued by NWS

Home | Current Version | Previous Version | Graphics & Text | Print | Product List | Glossary On
Versions: 1 2 3 4 5 6 7 8 9 10 11 12 13 14 15 16 17 18 19 20 21 22 23 24 25 26 27 28 29 30 31 32 33 34 35 36 37 38 39 40 41 42 43 44 45 46 47 48 49 50
729
ASUS43 KDMX 270201
RWRIA

WEATHER ROUNDUP FOR IOWA
NATIONAL WEATHER SERVICE DES MOINES IA
900 PM CDT FRI MAY 26 2017

NOTE: "FAIR" INDICATES FEW OR NO CLOUDS BELOW 12,000 FEET WITH NO
SIGNIFICANT WEATHER AND/OR OBSTRUCTIONS TO VISIBILITY.

* - THESE STATIONS ARE NOT NWS STATIONS...THUS NOT UNDER NWS
QUALITY CONTROL.  THEY ALSO DO NOT REPORT WEATHER SUCH
AS PRECIPITATION OR FOG.

IAZ001>003-012>014-020>022-031>034-043>046-270300-
   NORTHWEST IOWA

CITY           SKY/WX    TMP DP  RH WIND       PRES   REMARKS
CARROLL *      CLEAR     70  48  46 W5        29.82R
CHEROKEE *     CLEAR     67  44  43 NW5       29.85R
DENISON *      CLEAR     70  46  43 CALM      29.85R
LE MARS *      CLEAR     66  45  45 W6        29.87R
ORANGE CITY *  CLEAR     63  46  55 NW7       29.87R
SHELDON *      CLEAR     68  41  37 NW8       29.84R
SIOUX CITY     CLEAR     65  47  52 NW7       29.85R
SPENCER        CLEAR     61  47  59 NW10      29.84R
STORM LAKE *   CLEAR     70  43  37 NW9       29.84R
$$

IAZ055>058-069>071-079>083-090>094-270300-
   SOUTHWEST IOWA

CITY           SKY/WX    TMP DP  RH WIND       PRES   REMARKS
ATLANTIC *     CLEAR     70  50  49 N6        29.83R
AUDUBON *      CLEAR     66  52  59 CALM      29.85R
CLARINDA *     CLEAR     75  54  46 N7        29.84R
COUNCIL BLFS * CLEAR     72  50  46 N3        29.84R
CRESTON *      CLEAR     73  55  53 N7        29.84R
HARLAN  *      CLEAR     68  50  52 NW7       29.87R
LAMONI         CLEAR     74  61  63 CALM      29.82R
RED OAK *      CLEAR     72  48  43 N6        29.83R
SHENANDOAH *   CLEAR     75  50  41 N6        29.83R
$$

IAZ047>049-059>061-072>074-084-270300-
   CENTRAL IOWA

CITY           SKY/WX    TMP DP  RH WIND       PRES   REMARKS
AMES           CLOUDY    70  62  76 SE7       29.80R
ANKENY *       PTCLDY    70  63  78 SE6       29.82R
BOONE *        CLOUDY    75  59  57 CALM      29.80R
CHARITON *     CLEAR     72  63  73 SE3       29.81R
DES MOINES     PTCLDY    75  62  64 E9        29.80R
GRINNELL*      CLEAR     65  60  83 E6        29.83R
KNOXVILLE *    CLEAR     68  63  83 VRB3      29.81R
MARSHALLTOWN   CLOUDY    65  61  87 SE8       29.81R
NEWTON *       CLEAR     66  61  82 SE7       29.82R
PELLA *        CLEAR     67  61  80 E3        29.83R
PERRY *          N/A     74  44  33 NW6       29.81R
$$

IAZ004>006-015-016-023>025-035-036-270300-
   NORTH CENTRAL IOWA

CITY           SKY/WX    TMP DP  RH WIND       PRES   REMARKS
ALGONA *       CLEAR     72  46  40 NW9       29.81R
CLARION *      CLEAR     72  48  43 NW6       29.80R
ESTHERVILLE    CLEAR     64  51  62 W8        29.82R
FORT DODGE *   CLEAR     72  45  37 W3        29.81R
MASON CITY     PTCLDY    68  57  68 SE8       29.81R
FOREST CITY *    N/A     68  37  32 NW5       29.80R
WEBSTER CITY * PTCLDY    72  46  40 W6        29.79R
IOWA FALLS *     N/A     69  60  74 SE12      29.82R
$$

IAZ007>011-017>019-026>030-037>042-050>054-066-270300-
   NORTHEAST IOWA

CITY           SKY/WX    TMP DP  RH WIND       PRES   REMARKS
CEDAR RAPIDS   CLEAR     61  60  97 E3        29.82R
CHARLES CITY * PTCLDY    66  61  82 S10       29.81S
CLINTON *      CLOUDY    62  59  90 E9        29.84R
DECORAH *      PTCLDY    63  59  88 VRB5      29.82S
DUBUQUE        CLEAR     59  56  89 E6        29.84R
MONTICELLO *   CLEAR     63  61  94 CALM      29.83S
OELWEIN *      PTCLDY    63  59  88 SE3       29.83S
WATERLOO       MOCLDY    64  57  78 SE6       29.81R
$$

IAZ064-065-067-068-078-270300-
   EAST CENTRAL IOWA

CITY           SKY/WX    TMP DP  RH WIND       PRES   REMARKS
DAVENPORT      MOCLDY    63  59  87 NE12      29.83R
IOWA CITY      CLEAR     65  59  81 CALM      29.83S
MT. PLEASANT * CLEAR     65  59  81 N6        29.82R
MUSCATINE *    CLOUDY    66  61  82 N6        29.83R
QUAD CITIES    PTCLDY    64  59  83 NE5       29.82R
$$

IAZ062-063-075>077-085>089-095>099-270300-
   SOUTHEAST IOWA

CITY           SKY/WX    TMP DP  RH WIND       PRES   REMARKS
BURLINGTON     MOCLDY    66  60  81 N8        29.81R
FAIRFIELD *    CLEAR     63  59  88 CALM      29.82R
FORT MADISON * CLEAR     64  61  88 N3        29.83R
KEOKUK *       CLEAR     68  63  83 N6        29.81R
OSKALOOSA *      N/A     65  61  86 E7        29.82R
OTTUMWA        CLEAR     67  64  90 E7        29.82R
WASHINGTON *   CLEAR     63  61  94 CALM      29.83S
$$

ABBREVIATIONS USED IN REMARKS
   TC - TEMPERATURES IN CELSIUS
  WCI - WIND CHILL INDEX
   HX - HEAT INDEX
  VSB - VISIBILITY
$$





USA.gov is the U.S. government's official web portal to all federal, state and local government web resources and services.